Location: Abyssinia Baptist Church
(32.7840°N, 96.7578°W)
Time: 01:51:53
(UTC+00:00)

Lacrosse 5 rocket - Visible Passes

Search period start: 26 June 2022 00:00
Search period end: 06 July 2022 00:00
Orbit: 457 x 629 km, 57.0° (Epoch: 25 June)

Date Brightness Start Highest point End Pass type
(mag) Time Alt. Az. Time Alt. Az. Time Alt. Az.
26 Jun 3.8 05:35:27 10° NNW 05:36:51 20° NNW 05:36:51 20° NNW visible
27 Jun 3.7 05:27:53 10° NNW 05:29:16 21° NNW 05:29:16 21° NNW visible
28 Jun 3.9 03:44:00 10° NNE 03:44:56 11° NE 03:45:54 10° NE visible
28 Jun 3.7 05:20:21 10° NW 05:21:45 21° NW 05:21:45 21° NW visible
29 Jun 3.6 03:35:33 10° N 03:37:34 13° NE 03:38:46 12° ENE visible
29 Jun 3.6 05:12:52 10° NW 05:14:17 21° NW 05:14:17 21° NW visible
30 Jun 3.3 03:27:32 10° N 03:30:10 17° NE 03:31:21 15° ENE visible
30 Jun 3.6 05:05:27 10° NW 05:06:51 20° WNW 05:06:51 20° WNW visible
01 Jul 3.0 03:19:40 10° N 03:22:45 21° NE 03:23:59 19° ENE visible
01 Jul 3.6 04:58:06 10° WNW 04:59:29 19° WNW 04:59:29 19° WNW visible
02 Jul 2.7 03:11:54 10° NNW 03:15:16 27° NE 03:16:39 22° E visible
02 Jul 3.7 04:50:51 10° WNW 04:52:10 17° W 04:52:10 17° W visible
03 Jul 2.2 03:04:10 10° NNW 03:07:48 36° NE 03:09:24 25° E visible
03 Jul 3.8 04:43:44 10° WNW 04:44:55 15° W 04:44:55 15° W visible
04 Jul 1.7 02:56:30 10° NNW 03:00:17 48° NE 03:02:11 26° ESE visible
04 Jul 4.0 04:36:54 10° W 04:37:43 12° W 04:37:43 12° W visible
05 Jul 1.3 02:48:53 10° NNW 02:52:46 66° NE 02:55:03 24° SE visible
